SCP
0 1 1 1 1 1 1 2 2 2 2 1 1 2 2 2 1 1 1 1 1 1 1 1 1 1 1 1 1 0 0 0 0 0 0 0 0 0 0 0 0 0 0
1 1 1 1 1 1 1 2 2 2 2 1 1 1 1 2 1 1 1 1 1 1 1 1 1 1 1 1 1 0 0 0 0 0 0 0 0 0 0 0 0 0 0
1 1 1 2 2 2 2 2 2 2 2 1 1 1 1 1 1 1 1 1 1 1 1 1 1 1 1 1 1 0 0 0 0 0 0 0 0 0 0 0 0 0 0
1 1 2 2 2 2 2 2 2 2 2 1 1 1 1 1 1 1 1 1 1 1 1 1 1 1 1 1 1 1 0 0 0 0 0 0 0 0 0 0 0 0 1
2 2 2 2 2 2 2 2 2 2 1 1 1 1 1 1 1 1 1 1 1 1 1 1 1 1 1 1 1 1 0 0 0 0 0 0 0 0 0 0 0 1 1
2 2 2 3 3 3 2 2 2 2 1 1 1 1 1 1 1 1 1 1 1 1 1 1 1 1 1 1 1 1 0 0 0 0 0 0 0 0 0 0 1 1 1
2 2 3 3 3 3 2 2 2 2 1 1 1 1 1 1 1 1 1 1 1 1 1 1 1 1 1 1 0 0 0 0 0 0 0 0 0 0 0 0 1 1 1
2 2 2 3 3 3 3 2 2 2 1 2 2 1 1 1 1 1 1 1 1 1 1 1 1 1 1 0 0 0 0 0 0 0 0 0 0 0 0 1 1 1 1
2 2 2 3 3 3 3 2 2 2 2 2 2 1 1 1 1 1 1 1 1 1 1 1 1 1 1 0 0 0 0 0 0 0 0 0 0 0 1 1 1 1 1
2 2 2 3 3 3 2 2 2 2 2 2 2 1 1 1 1 1 1 1 1 1 1 1 1 1 1 1 0 0 0 0 0 0 0 0 0 1 1 1 1 1 1
3 3 3 3 3 3 2 2 2 2 2 2 1 1 1 1 1 1 1 1 1 1 1 1 1 1 1 1 0 0 0 0 0 0 0 0 1 1 1 1 1 1 1
2 2 3 3 3 3 2 2 2 2 2 2 1 1 1 1 1 1 1 1 1 1 1 1 1 1 1 1 0 0 0 0 0 0 0 0 1 1 1 1 1 1 1
1 2 2 3 3 3 3 3 3 3 2 2 1 1 1 1 1 1 1 1 1 1 1 1 1 1 1 1 1 0 0 0 0 0 0 0 1 1 1 1 1 1 1
0 1 1 2 3 3 3 3 3 3 3 2 1 1 1 1 1 1 1 1 1 1 1 1 1 1 1 1 1 1 1 0 0 0 0 0 0 1 1 1 1 1 1
0 0 0 1 2 3 3 3 3 4 3 2 2 1 1 1 1 1 1 1 1 1 1 0 0 0 0 1 1 1 1 0 0 0 0 0 0 0 1 1 1 1 1
0 0 0 0 1 2 3 3 4 4 3 3 2 1 1 1 1 1 1 1 1 1 1 0 0 0 0 1 1 1 1 1 0 0 0 0 0 0 1 1 1 1 1
0 0 0 0 0 1 2 3 4 4 4 3 2 1 1 1 1 1 1 1 1 1 0 0 0 0 0 1 1 1 1 1 1 0 0 0 0 0 1 1 1 1 1
0 0 0 0 0 0 1 3 4 4 4 4 3 2 1 1 1 1 1 1 1 1 0 0 0 0 0 1 1 1 1 1 1 0 0 0 0 0 0 1 1 1 1
0 0 0 0 0 0 1 2 3 4 4 4 3 2 1 1 1 1 1 1 1 1 1 0 0 0 0 0 1 1 1 0 0 0 0 0 0 0 0 0 0 1 1
0 0 0 0 0 0 0 1 3 4 4 4 4 3 1 1 1 1 1 1 1 1 1 0 0 0 0 0 0 1 0 0 0 0 0 0 0 0 0 0 0 0 0
0 0 0 0 0 0 0 1 2 3 4 4 4 3 2 1 1 1 1 1 1 1 1 0 0 0 0 0 0 0 0 0 0 0 0 0 0 0 0 0 0 0 0
0 0 0 0 0 0 0 0 1 2 3 4 4 3 2 1 1 1 1 1 1 1 1 0 0 0 0 0 0 0 0 0 0 0 0 0 0 0 0 0 0 0 0
0 0 0 0 0 0 0 0 0 1 2 3 3 3 2 1 1 1 1 1 1 1 0 0 0 0 0 0 0 0 0 0 0 0 0 0 0 0 0 1 1 0 0
0 0 0 0 0 0 0 0 0 0 1 2 2 2 1 1 0 1 1 1 1 1 0 0 0 0 0 0 0 0 0 0 0 0 0 0 0 0 0 0 1 1 0
0 0 0 0 0 0 0 0 0 0 1 2 2 2 1 1 0 0 1 1 1 1 0 0 1 0 0 0 0 0 0 0 0 0 0 0 0 0 0 0 1 0 0
0 0 0 0 0 0 0 0 0 0 0 2 2 2 1 1 0 0 0 1 1 1 0 0 1 1 0 0 0 0 0 0 0 0 0 0 0 0 0 0 0 0 0
Wind_Speed
5 5 8 9 10 10 10 10 10 10 10 10 10 10 10 10 10 10 9 9 10 10 10 10 10 10 10 11 11 11 11 11 11 11 10 10 10 11 12 11 10 7 12
3 5 8 9 10 10 11 11 10 10 10 10 9 9 9 9 9 9 9 9 9 9 9 9 10 10 10 10 10 10 11 11 11 10 9 7 7 9 10 10 9 7 12
4 5 6 9 10 10 11 11 11 10 10 10 10 9 9 9 9 9 9 9 9 9 9 9 9 9 9 9 10 10 10 10 9 8 7 4 4 8 9 10 10 10 11
5 5 5 9 11 11 11 11 11 10 10 10 10 10 9 10 9 9 9 9 9 9 9 9 8 8 8 8 9 9 9 9 8 6 3 3 3 7 9 9 9 9 9
5 6 6 10 11 11 11 11 11 11 10 10 10 10 10 10 10 9 9 9 9 9 9 8 8 8 8 8 8 8 8 8 7 5 3 2 2 6 8 8 9 8 8
6 6 7 10 11 11 11 11 11 12 11 10 9 10 10 9 9 9 9 9 9 8 8 8 8 8 8 8 8 8 8 8 6 4 3 2 2 5 7 7 7 8 8
6 6 7 11 11 11 11 11 11 11 11 10 9 9 10 10 9 9 9 9 8 8 8 7 8 8 8 8 8 8 8 7 5 3 2 2 2 4 5 6 7 7 7
6 7 7 11 11 12 12 11 11 11 11 11 10 9 9 9 9 9 8 8 8 8 8 7 7 7 7 7 7 8 8 7 5 4 2 1 2 4 4 5 6 6 7
7 7 7 7 8 10 11 12 12 11 11 11 11 10 9 9 8 8 8 7 7 7 7 6 6 7 7 7 7 7 8 8 4 2 2 1 2 3 4 4 5 5 6
8 8 8 8 7 6 6 11 12 12 12 12 12 11 10 9 8 8 7 7 7 6 6 6 6 6 7 7 7 7 7 6 4 3 2 1 2 3 4 4 4 5 5
9 8 8 8 8 7 5 8 9 10 11 11 10 11 9 5 4 4 6 7 7 7 6 6 6 7 6 6 6 6 5 2 3 2 2 2 2 2 3 4 4 4 4
8 8 8 8 8 7 6 5 4 5 6 7 6 6 5 4 4 5 6 7 7 7 6 6 6 6 5 3 4 5 2 3 2 2 2 3 1 2 2 3 4 4 4
6 7 7 7 7 7 5 4 3 3 4 5 6 6 5 4 4 4 2 3 4 5 3 4 4 3 2 2 2 2 2 2 1 1 2 3 1 1 2 3 3 3 3
6 7 7 7 6 6 5 4 3 3 3 4 5 6 4 3 4 4 2 2 2 2 2 2 2 3 2 2 1 1 2 1 1 1 1 3 2 1 1 2 3 3 3
6 7 7 7 7 6 5 4 4 4 3 4 4 5 5 4 4 4 3 2 2 2 2 2 2 2 2 2 1 1 2 2 2 2 2 3 3 1 1 2 3 3 3
7 6 6 7 7 6 5 4 4 4 3 3 3 5 5 3 3 3 3 2 2 2 2 2 2 2 2 1 2 2 2 1 2 2 2 2 3 2 1 2 3 3 3
5 6 6 6 7 7 5 5 4 3 3 3 3 4 5 4 4 3 3 3 2 2 2 2 2 2 2 2 2 2 2 1 1 2 2 1 2 2 2 3 3 3 3
5 6 6 6 7 7 5 4 3 3 3 3 3 3 5 5 4 3 3 3 3 2 2 2 2 2 2 2 2 2 2 1 1 2 1 1 1 2 2 2 2 3 4
5 5 6 6 6 6 5 4 3 3 3 3 3 3 4 5 4 3 3 3 3 2 2 2 2 1 2 2 2 2 2 1 1 1 1 1 1 1 1 2 2 2 2
4 5 5 6 6 5 4 3 3 4 3 3 3 4 5 4 5 3 3 4 3 2 2 2 2 2 1 1 2 2 2 2 1 1 1 1 1 1 1 2 2 2 3
5 5 5 6 6 5 4 4 3 4 4 4 4 5 5 5 5 4 3 3 3 2 2 2 1 2 2 1 1 2 3 2 1 1 1 1 1 1 1 1 1 2 2
4 5 6 6 6 5 4 3 2 3 2 2 3 4 5 5 5 4 4 3 3 2 3 2 1 1 2 1 0 1 2 2 2 2 2 1 1 1 1 2 2 1 2
4 4 5 5 6 6 5 3 4 3 3 3 4 4 5 6 5 4 4 3 3 2 2 2 2 1 2 2 1 1 1 2 3 3 2 2 1 1 2 2 2 2 2
2 3 4 4 5 5 4 4 4 4 4 4 4 4 5 5 5 5 4 4 3 3 3 3 2 2 2 2 2 1 2 2 2 3 3 2 2 3 3 3 3 3 3
2 3 3 4 4 4 4 4 3 3 3 3 4 5 5 5 5 5 5 4 4 3 4 3 3 3 2 3 2 2 2 2 2 2 4 4 3 2 3 3 3 3 3
2 2 3 3 4 4 4 4 3 4 4 5 5 5 5 4 4 5 6 4 4 4 4 4 4 4 3 4 3 2 2 2 2 2 4 4 5 4 3 3 3 3 3
Wind_Direction
347 346 12 23 34 40 47 55 57 62 64 66 67 65 64 62 60 61 63 67 67 66 66 67 69 70 72 71 72 72 73 77 77 76 74 74 80 87 89 85 81 80 88
348 357 18 28 38 41 45 52 56 60 62 64 67 68 65 62 59 62 65 66 67 67 67 67 68 68 70 70 71 72 74 76 75 69 65 65 74 88 91 89 90 91 91
26 13 16 33 41 44 46 49 55 60 62 60 60 66 65 63 60 64 67 65 64 64 66 67 69 68 67 67 68 69 72 73 71 64 57 50 71 93 97 97 97 97 96
33 21 22 37 43 45 46 49 51 58 61 59 55 56 60 61 62 65 67 64 61 60 62 65 68 69 66 64 65 65 67 66 62 56 53 44 60 95 101 102 101 101 101
35 24 24 43 46 47 47 47 49 49 54 56 55 53 54 57 60 63 64 62 59 57 58 63 65 66 64 62 62 61 59 54 48 47 48 47 60 95 100 101 100 100 103
33 25 27 44 46 47 46 44 45 46 48 51 53 52 52 54 59 61 62 62 59 58 59 61 61 61 59 57 57 56 54 50 42 37 40 47 69 103 107 104 107 106 106
36 27 29 42 43 43 45 44 42 43 42 43 46 49 50 50 56 59 62 61 59 60 59 60 58 57 54 54 55 54 50 46 43 36 31 37 72 105 114 112 114 117 114
43 30 29 35 39 41 40 40 38 37 37 37 39 41 45 47 50 55 59 62 60 59 58 54 53 51 50 49 49 51 46 46 46 37 22 22 75 97 110 112 112 117 118
41 34 25 24 27 34 36 36 33 33 33 31 32 34 34 38 41 48 49 52 57 58 58 55 50 44 47 46 43 42 42 41 40 23 21 10 63 94 103 115 117 118 119
36 31 23 20 20 19 25 33 32 30 29 29 27 26 26 28 33 39 39 39 43 47 53 53 47 43 41 42 39 38 36 37 32 14 3 8 61 89 98 107 120 121 118
28 23 18 18 14 11 20 29 27 29 27 25 22 20 21 12 12 27 28 32 33 37 40 43 42 41 35 33 32 32 29 30 20 10 354 14 71 92 101 104 114 119 120
17 14 15 14 13 13 17 22 19 24 21 20 15 11 9 6 5 18 20 24 24 26 28 28 29 35 35 24 22 25 25 17 22 359 347 358 51 82 104 119 120 123 121
13 14 11 11 12 15 11 13 17 15 15 16 16 12 7 7 5 11 15 14 13 18 16 11 18 14 24 23 15 11 8 7 4 345 345 347 2 72 121 132 141 144 142
21 13 7 8 13 14 13 10 17 17 13 13 8 9 12 7 7 360 6 4 12 6 0 1 3 1 7 10 12 8 359 352 341 331 327 343 335 307 179 161 154 158 163
21 11 5 7 11 11 12 9 16 14 14 7 7 5 10 8 2 356 352 359 2 1 360 355 353 356 354 353 353 358 344 334 328 324 323 329 326 311 215 190 179 169 168
16 7 3 12 9 10 14 10 7 5 7 8 8 1 2 1 359 355 350 351 351 350 348 344 333 345 337 344 339 329 314 316 317 314 312 315 320 314 279 226 209 196 185
12 7 5 11 11 8 7 8 8 2 3 5 359 356 359 358 353 356 349 343 339 340 350 352 352 359 358 358 340 318 307 302 306 312 311 313 309 303 286 243 224 216 208
16 9 5 11 11 6 3 0 0 359 0 358 353 353 356 356 355 354 351 340 337 340 355 354 353 355 355 353 336 321 316 301 298 291 296 315 327 322 308 290 251 232 223
17 10 7 8 8 4 357 357 355 357 2 352 351 355 353 355 356 352 345 334 339 346 349 347 347 344 337 342 324 314 310 290 281 295 307 303 308 321 327 326 309 278 254
19 13 12 9 6 2 0 358 357 5 1 354 353 353 351 352 351 348 340 337 344 353 344 349 331 338 310 324 317 318 303 286 276 260 277 295 303 310 341 345 335 308 293
21 14 12 9 1 3 360 353 348 345 343 348 350 351 350 346 344 349 342 337 343 341 326 317 315 331 323 347 358 333 319 299 274 268 271 271 282 291 328 326 329 329 307
17 9 9 6 0 1 354 338 323 309 311 327 335 345 348 346 340 345 344 334 330 326 330 322 324 319 311 340 15 329 322 324 329 296 267 249 260 312 313 304 301 304 310
14 4 3 1 2 359 353 351 348 337 327 343 344 340 340 342 338 333 332 328 325 318 299 300 262 258 269 278 249 184 212 262 310 298 285 265 266 275 279 284 282 290 293
355 352 353 355 1 359 359 9 6 354 337 328 325 324 329 334 335 335 329 324 319 314 297 290 295 266 232 255 270 274 257 230 244 288 293 288 283 271 264 272 272 269 271
351 347 345 350 356 356 2 8 1 344 320 318 324 328 329 325 332 332 326 323 317 307 296 285 287 272 242 245 253 274 285 275 248 249 273 286 293 277 269 261 256 260 265
351 344 343 347 345 346 355 358 354 338 326 329 332 332 327 322 325 328 322 313 308 304 297 283 271 261 251 253 256 257 256 236 250 257 264 274 280 283 280 268 255 253 254